Location: Saint-Hippolyte
(43.6394°N, 4.7559°E)
Time: 14:53:59
(UTC+00:00)

BREEZE-M R/B - Pass Details

Date: 24 October 2020
Orbit: 310 x 4523 km, 49.7° (Epoch: 23 November)

Event Time Altitude Azimuth Distance (km) Brightness Sun altitude
Rises 19:13:45 0° 293° (WNW) 2,802 7.6 -27.9°
Reaches altitude 10° 19:15:27 10° 298° (WNW) 2,148 6.7 -28.2°
Maximum altitude 19:20:15 59° 19° (NNE) 1,224 4.3 -29.1°
Enters shadow 19:20:51 57° 41° (NE) 1,304 4.4 -29.2°
